KS5S Weather Reports


Display with metric or nautical units.
time (UTC)temp
F
wind
direction
speed
MPH
gust
MPH
rain 1hr
in
rain 24hr
in
rain mn
in
humidity
%
barometer
mb
20260506001812 84 309 2.0 9.0 0.00 0.00 0.00 64 1003.0
20260506001310 85 296 5.0 8.0 0.00 0.00 0.00 71 1002.7
20260506000807 85 311 3.0 3.0 0.00 0.00 0.00 76 1002.7
20260506000304 85 173 2.0 9.0 0.00 0.00 0.00 75 1002.6
20260505235801 85 156 6.0 7.0 0.00 0.00 0.00 75 1002.3
20260505235259 86 194 4.0 12.0 0.00 0.00 0.00 74 1002.2
20260505234755 86 192 1.0 8.0 0.00 0.00 0.00 74 1002.4
20260505234253 86 163 2.0 10.0 0.00 0.00 0.00 74 1002.2
20260505233749 86 128 4.0 13.0 0.00 0.00 0.00 73 1002.3
20260505233247 86 171 4.0 9.0 0.00 0.00 0.00 73 1002.0
20260505232745 86 180 5.0 12.0 0.00 0.00 0.00 72 1002.2
20260505232242 86 163 5.0 13.0 0.00 0.00 0.00 72 1001.9
20260505231738 87 200 3.0 12.0 0.00 0.00 0.00 71 1001.9
20260505231237 87 176 10.0 15.0 0.00 0.00 0.00 72 1002.0
20260505230735 87 166 7.0 16.0 0.00 0.00 0.00 71 1002.0
20260505230231 88 152 9.0 10.0 0.00 0.00 0.00 70 1001.7
20260505225728 89 151 2.0 10.0 0.00 0.00 0.00 69 1001.9
20260505225225 89 176 3.0 5.0 0.00 0.00 0.00 63 1001.9
20260505224720 89 166 4.0 9.0 0.00 0.00 0.00 62 1001.9
20260505224218 91 169 5.0 8.0 0.00 0.00 0.00 59 1001.8
20260505223716 90 167 2.0 7.0 0.00 0.00 0.00 59 1001.7
20260505223212 90 199 5.0 8.0 0.00 0.00 0.00 56 1001.7
20260505222708 90 217 5.0 12.0 0.00 0.00 0.00 56 1001.7
20260505222203 91 213 4.0 9.0 0.00 0.00 0.00 58 1001.5
20260505221702 91 183 2.0 7.0 0.00 0.00 0.00 59 1001.6
20260505221158 90 181 4.0 10.0 0.00 0.00 0.00 58 1001.6
20260505220655 90 172 2.0 9.0 0.00 0.00 0.00 59 1001.8
20260505220153 89 183 5.0 11.0 0.00 0.00 0.00 58 1001.7
20260505215650 91 178 2.0 7.0 0.00 0.00 0.00 58 1001.7
20260505215148 92 184 4.0 9.0 0.00 0.00 0.00 58 1001.7
20260505214646 91 169 6.0 10.0 0.00 0.00 0.00 57 1001.6
20260505214143 91 259 0.0 9.0 0.00 0.00 0.00 58 1001.7
20260505213640 92 208 4.0 9.0 0.00 0.00 0.00 55 1001.9
20260505213137 93 254 0.0 7.0 0.00 0.00 0.00 56 1001.5
20260505212632 91 271 3.0 10.0 0.00 0.00 0.00 57 1001.8
20260505212131 91 177 7.0 13.0 0.00 0.00 0.00 55 1001.7
20260505211627 91 209 5.0 11.0 0.00 0.00 0.00 56 1002.0
20260505211124 91 193 6.0 12.0 0.00 0.00 0.00 54 1002.1
20260505210621 92 247 4.0 8.0 0.00 0.00 0.00 53 1001.7
20260505210118 92 211 5.0 9.0 0.00 0.00 0.00 55 1002.1
20260505205615 91 238 4.0 11.0 0.00 0.00 0.00 54 1002.2
20260505205113 91 250 6.0 12.0 0.00 0.00 0.00 56 1002.2
20260505204610 91 220 7.0 15.0 0.00 0.00 0.00 55 1002.2
20260505204108 91 177 4.0 11.0 0.00 0.00 0.00 58 1002.4
20260505203604 91 238 4.0 13.0 0.00 0.00 0.00 57 1002.3
20260505203101 91 237 4.0 9.0 0.00 0.00 0.00 57 1002.2
20260505202557 91 240 4.0 17.0 0.00 0.00 0.00 58 1002.6
20260505202053 91 241 5.0 12.0 0.00 0.00 0.00 56 1002.5
20260505201550 91 217 6.0 11.0 0.00 0.00 0.00 56 1002.6
20260505201048 91 194 4.0 10.0 0.00 0.00 0.00 57 1002.5
20260505200545 91 224 5.0 12.0 0.00 0.00 0.00 55 1002.7
20260505200042 90 241 4.0 12.0 0.00 0.00 0.00 59 1002.5
20260505195538 89 202 5.0 16.0 0.00 0.00 0.00 59 1002.6
20260505195036 89 223 4.0 16.0 0.00 0.00 0.00 58 1002.8
20260505194533 89 202 3.0 12.0 0.00 0.00 0.00 60 1002.6
20260505194028 89 225 7.0 11.0 0.00 0.00 0.00 60 1002.6
20260505193526 88 240 3.0 17.0 0.00 0.00 0.00 60 1003.0
20260505193023 89 187 5.0 15.0 0.00 0.00 0.00 62 1003.0
20260505192521 88 208 9.0 12.0 0.00 0.00 0.00 61 1003.0
20260505192018 88 188 10.0 12.0 0.00 0.00 0.00 63 1002.9
20260505191517 88 243 5.0 15.0 0.00 0.00 0.00 62 1003.0
20260505191015 87 182 5.0 9.0 0.00 0.00 0.00 65 1002.9
20260505190509 87 233 6.0 14.0 0.00 0.00 0.00 65 1002.8
20260505190005 87 194 3.0 15.0 0.00 0.00 0.00 65 1003.2
20260505185502 86 252 9.0 15.0 0.00 0.00 0.00 66 1003.2
20260505184958 87 221 8.0 14.0 0.00 0.00 0.00 66 1003.3
20260505184455 86 217 9.0 17.0 0.00 0.00 0.00 66 1003.4
20260505183952 86 225 6.0 10.0 0.00 0.00 0.00 68 1003.2
20260505183449 86 234 11.0 12.0 0.00 0.00 0.00 67 1003.3
20260505182945 85 229 7.0 13.0 0.00 0.00 0.00 69 1003.3
20260505182442 86 180 5.0 11.0 0.00 0.00 0.00 67 1003.7
20260505181938 85 234 9.0 16.0 0.00 0.00 0.00 68 1003.5
20260505181436 85 217 7.0 13.0 0.00 0.00 0.00 70 1003.7
20260505180933 84 238 6.0 13.0 0.00 0.00 0.00 71 1003.5
20260505180429 84 228 6.0 13.0 0.00 0.00 0.00 70 1003.3
20260505175926 85 232 4.0 13.0 0.00 0.00 0.00 70 1003.4
20260505175422 85 233 3.0 12.0 0.00 0.00 0.00 71 1003.4
20260505174918 84 206 7.0 14.0 0.00 0.00 0.00 71 1003.5
20260505174416 84 219 8.0 18.0 0.00 0.00 0.00 70 1003.7
20260505173912 84 224 14.0 17.0 0.00 0.00 0.00 71 1003.7
20260505173408 82 218 9.0 17.0 0.00 0.00 0.00 73 1003.4
20260505172905 82 222 10.0 18.0 0.00 0.00 0.00 73 1003.5
20260505172403 82 197 8.0 15.0 0.00 0.00 0.00 73 1003.5
20260505171903 83 196 6.0 13.0 0.00 0.00 0.00 73 1003.5
20260505171400 82 207 11.0 24.0 0.00 0.00 0.00 73 1003.4
20260505170856 83 231 15.0 17.0 0.00 0.00 0.00 73 1003.2
20260505170354 82 230 4.0 21.0 0.00 0.00 0.00 74 1003.4
20260505165848 82 215 4.0 19.0 0.00 0.00 0.00 75 1003.2
20260505165344 81 215 4.0 17.0 0.00 0.00 0.00 75 1003.4
20260505164840 81 194 9.0 21.0 0.00 0.00 0.00 76 1003.2
20260505164337 81 201 5.0 14.0 0.00 0.00 0.00 76 1003.3
20260505163836 81 215 3.0 27.0 0.00 0.00 0.00 76 1003.3
20260505163334 81 207 7.0 20.0 0.00 0.00 0.00 76 1003.3
20260505162832 81 207 9.0 16.0 0.00 0.00 0.00 76 1003.2
20260505162328 81 189 8.0 16.0 0.00 0.00 0.00 76 1003.7
20260505161825 81 168 11.0 19.0 0.00 0.00 0.00 77 1003.7
20260505161322 80 186 11.0 13.0 0.00 0.00 0.00 77 1003.7
20260505160819 80 219 5.0 16.0 0.00 0.00 0.00 77 1003.5
20260505160318 80 228 9.0 18.0 0.00 0.00 0.00 78 1003.4
20260505153256 79 207 4.0 22.0 0.00 0.00 0.00 79 1003.5
20260505152753 79 215 10.0 21.0 0.00 0.00 0.00 80 1003.5
20260505152250 79 208 11.0 15.0 0.00 0.00 0.00 80 1003.3
20260505151744 78 219 4.0 24.0 0.00 0.00 0.00 81 1003.4
20260505151242 78 216 7.0 15.0 0.00 0.00 0.00 81 1003.4
20260505150738 78 209 4.0 14.0 0.00 0.00 0.00 81 1003.7
20260505150236 77 218 5.0 21.0 0.00 0.00 0.00 83 1003.8
20260505140200 75 229 5.0 15.0 0.00 0.00 0.00 87 1003.4
20260505130124 72 186 7.0 16.0 0.00 0.00 0.00 90 1003.5
20260505124613 71 241 4.0 11.0 0.00 0.00 0.00 92 1003.3
20260505124110 71 216 4.0 15.0 0.00 0.00 0.00 92 1003.3
20260505123606 71 191 5.0 11.0 0.00 0.00 0.00 93 1003.0
20260505123102 71 230 2.0 8.0 0.00 0.00 0.00 93 1002.9
20260505122559 70 196 5.0 11.0 0.00 0.00 0.00 94 1003.0
20260505122056 70 182 12.0 12.0 0.00 0.00 0.00 94 1002.6
20260505121547 70 175 7.0 10.0 0.00 0.00 0.00 94 1002.8
20260505121044 70 200 6.0 14.0 0.00 0.00 0.00 95 1002.7
20260505120540 70 186 7.0 9.0 0.00 0.00 0.00 95 1002.9
20260505120036 69 193 6.0 12.0 0.00 0.00 0.00 95 1002.6
20260505115531 69 213 5.0 13.0 0.00 0.00 0.00 95 1002.7
20260505115029 69 200 4.0 14.0 0.00 0.00 0.00 95 1002.7
20260505114525 69 228 2.0 11.0 0.00 0.00 0.00 95 1002.6
20260505114022 69 192 7.0 11.0 0.00 0.00 0.00 95 1002.5
20260505113518 69 180 10.0 14.0 0.00 0.00 0.00 95 1002.9
20260505113015 69 212 7.0 8.0 0.00 0.00 0.00 95 1002.7
20260505112510 69 196 5.0 11.0 0.00 0.00 0.00 95 1002.5
20260505112009 69 185 8.0 13.0 0.00 0.00 0.00 96 1002.6
20260505111502 69 180 4.0 13.0 0.00 0.00 0.00 95 1002.6
20260505110959 69 218 3.0 12.0 0.00 0.00 0.00 95 1002.7
20260505110455 69 192 2.0 9.0 0.00 0.00 0.00 95 1002.5
20260505101927 70 225 2.0 10.0 0.00 0.00 0.00 94 1002.5
20260505101421 70 178 4.0 12.0 0.00 0.00 0.00 94 1002.6
20260505100917 70 175 6.0 11.0 0.00 0.00 0.00 94 1002.4
20260505100414 70 175 7.0 13.0 0.00 0.00 0.00 94 1002.4
20260505095910 70 198 5.0 11.0 0.00 0.00 0.00 94 1002.8
20260505095407 70 206 3.0 8.0 0.00 0.00 0.00 94 1002.8
20260505094903 70 156 5.0 12.0 0.00 0.00 0.00 93 1002.6
20260505094401 70 202 3.0 11.0 0.00 0.00 0.00 93 1002.7
20260505093856 70 203 7.0 11.0 0.00 0.00 0.00 93 1002.6
20260505093353 70 185 6.0 10.0 0.00 0.00 0.00 93 1003.0
20260505092851 70 180 6.0 13.0 0.00 0.00 0.00 93 1003.1
20260505092349 71 161 3.0 13.0 0.00 0.00 0.00 92 1002.9
20260505091845 71 183 11.0 11.0 0.00 0.00 0.00 92 1002.9
20260505091343 71 197 7.0 10.0 0.00 0.00 0.00 92 1002.8
20260505090841 71 165 5.0 16.0 0.00 0.00 0.00 92 1003.0
20260505090339 71 183 9.0 16.0 0.00 0.00 0.00 91 1003.3
20260505085836 71 198 6.0 10.0 0.00 0.00 0.00 91 1003.2
20260505085334 71 188 8.0 20.0 0.00 0.00 0.00 91 1003.2
20260505084832 71 200 10.0 14.0 0.00 0.00 0.00 91 1003.3
20260505084330 71 198 7.0 13.0 0.00 0.00 0.00 91 1002.9
20260505083826 71 206 4.0 17.0 0.00 0.00 0.00 91 1003.1
20260505083324 71 251 4.0 10.0 0.00 0.00 0.00 91 1003.2
20260505082821 71 172 5.0 14.0 0.00 0.00 0.00 91 1003.1
20260505082317 71 188 3.0 14.0 0.00 0.00 0.00 90 1003.0
20260505081814 71 165 8.0 18.0 0.00 0.00 0.00 90 1003.1
20260505081310 71 172 9.0 19.0 0.00 0.00 0.00 90 1003.1
20260505080807 71 180 12.0 16.0 0.00 0.00 0.00 90 1003.3
20260505080303 71 165 8.0 15.0 0.00 0.00 0.00 90 1003.2
20260505075758 71 196 4.0 18.0 0.00 0.00 0.00 90 1003.3
20260505075256 71 183 7.0 17.0 0.00 0.00 0.00 90 1003.3
20260505074753 71 193 5.0 14.0 0.00 0.00 0.00 89 1003.5
20260505074250 72 175 8.0 18.0 0.00 0.00 0.00 89 1003.7
20260505073748 72 183 7.0 14.0 0.00 0.00 0.00 89 1003.4
20260505073245 72 166 4.0 12.0 0.00 0.00 0.00 89 1003.5
20260505072742 72 210 5.0 19.0 0.00 0.00 0.00 88 1003.4
20260505072238 72 228 4.0 13.0 0.00 0.00 0.00 88 1003.5
20260505071734 72 201 4.0 15.0 0.00 0.00 0.00 88 1003.9
20260505071231 72 184 4.0 12.0 0.00 0.00 0.00 88 1003.8
20260505070728 72 180 8.0 18.0 0.00 0.00 0.00 87 1003.8
20260505070224 72 238 3.0 20.0 0.00 0.00 0.00 87 1004.0
20260505065720 72 180 11.0 13.0 0.00 0.00 0.00 87 1004.1
20260505065217 73 166 3.0 20.0 0.00 0.00 0.00 86 1004.2
20260505064714 73 172 5.0 17.0 0.00 0.00 0.00 86 1004.3
20260505064212 73 180 2.0 14.0 0.00 0.00 0.00 86 1004.3
20260505063709 73 177 13.0 13.0 0.00 0.00 0.00 85 1004.4
20260505063205 73 180 13.0 17.0 0.00 0.00 0.00 85 1004.6
20260505062701 73 187 8.0 12.0 0.00 0.00 0.00 85 1004.6
20260505062200 73 182 7.0 13.0 0.00 0.00 0.00 84 1004.6
20260505061656 73 189 8.0 18.0 0.00 0.00 0.00 84 1004.4
20260505061154 73 185 4.0 14.0 0.00 0.00 0.00 84 1004.6
20260505060651 73 198 5.0 13.0 0.00 0.00 0.00 83 1004.5
20260505060148 73 210 4.0 21.0 0.00 0.00 0.00 83 1004.2
20260505055643 73 181 10.0 18.0 0.00 0.00 0.00 82 1004.2
20260505055140 73 176 5.0 20.0 0.00 0.00 0.00 82 1004.2
20260505054638 74 183 13.0 20.0 0.00 0.00 0.00 81 1004.4
20260505054136 74 185 6.0 19.0 0.00 0.00 0.00 81 1004.2
20260505053633 74 192 9.0 14.0 0.00 0.00 0.00 81 1004.2
20260505053129 74 188 13.0 16.0 0.00 0.00 0.00 80 1004.2
20260505052626 74 185 4.0 17.0 0.00 0.00 0.00 80 1004.4
20260505052124 74 215 7.0 15.0 0.00 0.00 0.00 80 1004.1
20260505051621 74 182 5.0 14.0 0.00 0.00 0.00 79 1004.5
20260505051119 74 172 6.0 13.0 0.00 0.00 0.00 79 1004.7
20260505050616 74 197 5.0 16.0 0.00 0.00 0.00 79 1004.7
20260505050114 75 174 9.0 19.0 0.00 0.00 0.00 78 1004.8
20260505041544 76 170 4.0 17.0 0.00 0.00 0.00 75 1004.6
20260505041041 76 191 8.0 15.0 0.00 0.00 0.00 76 1004.8
20260505040539 76 161 4.0 17.0 0.00 0.00 0.00 76 1004.7
20260505040036 76 190 6.0 12.0 0.00 0.00 0.00 76 1004.8
20260505035531 76 224 3.0 15.0 0.00 0.00 0.00 75 1004.9
20260505035028 76 151 12.0 19.0 0.00 0.00 0.00 75 1004.8
20260505034525 76 188 3.0 18.0 0.00 0.00 0.00 75 1004.7
20260505034022 76 255 5.0 15.0 0.00 0.00 0.00 75 1004.7
20260505033519 76 180 7.0 14.0 0.00 0.00 0.00 75 1004.4
20260505033017 76 177 13.0 15.0 0.00 0.00 0.00 75 1004.7
20260505032514 76 156 4.0 15.0 0.00 0.00 0.00 75 1004.5
20260505032011 76 188 6.0 20.0 0.00 0.00 0.00 74 1004.1
20260505031508 76 137 5.0 15.0 0.00 0.00 0.00 75 1004.3
20260505031004 77 163 5.0 18.0 0.00 0.00 0.00 74 1004.3
20260505030501 77 161 9.0 19.0 0.00 0.00 0.00 74 1004.6
20260505025956 77 172 5.0 18.0 0.00 0.00 0.00 73 1004.6
20260505025453 77 157 7.0 17.0 0.00 0.00 0.00 73 1004.5
20260505024953 77 173 5.0 12.0 0.00 0.00 0.00 74 1004.6
20260505024449 77 157 13.0 19.0 0.00 0.00 0.00 73 1004.4
20260505023946 77 183 9.0 19.0 0.00 0.00 0.00 73 1004.3
20260505023443 77 187 6.0 10.0 0.00 0.00 0.00 73 1004.3
20260505022940 77 161 4.0 16.0 0.00 0.00 0.00 73 1004.4
20260505022438 77 154 9.0 13.0 0.00 0.00 0.00 73 1004.2
20260505021935 77 162 5.0 17.0 0.00 0.00 0.00 73 1004.3
20260505021431 77 172 16.0 18.0 0.00 0.00 0.00 73 1004.0
20260505020927 77 173 6.0 20.0 0.00 0.00 0.00 73 1004.1
20260505020422 77 163 5.0 11.0 0.00 0.00 0.00 73 1004.3
20260505015920 77 162 10.0 14.0 0.00 0.00 0.00 73 1004.1
20260505015417 77 159 5.0 13.0 0.00 0.00 0.00 73 1004.1
20260505014914 77 167 3.0 16.0 0.00 0.00 0.00 73 1003.9
20260505014411 77 169 7.0 14.0 0.00 0.00 0.00 73 1004.1
20260505013908 77 168 10.0 13.0 0.00 0.00 0.00 73 1004.0
20260505013404 77 204 2.0 14.0 0.00 0.00 0.00 73 1004.2
20260505012903 77 161 6.0 12.0 0.00 0.00 0.00 73 1004.1
20260505012400 77 169 5.0 14.0 0.00 0.00 0.00 72 1003.9
20260505011856 77 145 5.0 11.0 0.00 0.00 0.00 72 1004.2
20260505011353 77 180 15.0 16.0 0.00 0.00 0.00 72 1004.0
20260505010850 77 149 6.0 14.0 0.00 0.00 0.00 71 1004.0
20260505010345 78 155 5.0 13.0 0.00 0.00 0.00 72 1003.9
20260505005842 78 174 11.0 12.0 0.00 0.00 0.00 71 1003.9
20260505005339 78 177 4.0 17.0 0.00 0.00 0.00 71 1004.0
20260505004836 78 134 3.0 15.0 0.00 0.00 0.00 71 1004.0
20260505004332 78 148 5.0 12.0 0.00 0.00 0.00 71 1004.3
20260505003830 78 177 12.0 16.0 0.00 0.00 0.00 70 1004.1
20260505003327 78 154 8.0 16.0 0.00 0.00 0.00 70 1004.1
20260505002823 78 187 5.0 13.0 0.00 0.00 0.00 71 1004.4
20260505002320 78 145 7.0 15.0 0.00 0.00 0.00 70 1004.3